AirNav   Pilot Hours Calculator
 
 1148 users online  

S48 Country Squire Airpark
Sandy, Oregon, USA

GOING TO SANDY?


FAA INFORMATION EFFECTIVE 07 OCTOBER 2021

Location

FAA Identifier: S48
Lat/Long: 45-21-16.0000N 122-16-05.0000W
45-21.266667N 122-16.083333W
45.3544444,-122.2680556
(estimated)
Elevation: 1175 ft. / 358 m (estimated)
Variation: 19E (1985)
From city: 3 miles S of SANDY, OR
Time zone: UTC -7 (UTC -8 during Standard Time)
Zip code: 97055

Airport Operations

Airport use: Open to the public
Activation date: 08/1976
Control tower: no
ARTCC: SEATTLE CENTER
FSS: MC MINNVILLE FLIGHT SERVICE STATION
NOTAMs facility: MMV (NOTAM-D service available)
Attendance: IREG
Wind indicator: yes
Segmented circle: no
Landing fee: yes, OVERNIGHT TIEDOWN FEE AND LNDG FEE FOR NON BASED ACFT .

Airport Communications

CTAF: 122.9
WX ASOS at TTD (13 nm NW): 135.625 (503-492-2887)
WX ASOS at PDX (20 nm NW): PHONE (503) 493-7687

Nearby radio navigation aids

VOR radial/distance  VOR name  Freq  Var
BTGr129/27.2BATTLE GROUND VORTAC116.6021E
UBGr069/29.9NEWBERG VOR/DME117.4021E

 
NDB name  Hdg/Dist  Freq  Var  ID
BANKS101/36.735616EPND .--. -. -..

Airport Services

Parking: hangars and tiedowns
Airframe service: NONE
Powerplant service: NONE
Bottled oxygen: NONE
Bulk oxygen: NONE

Runway Information

Runway 7/25

Dimensions: 3095 x 32 ft. / 943 x 10 m
Surface: asphalt, in excellent condition
Weight bearing capacity: 
Single wheel: 7.0
Operational restrictions: RUNWAY MAGNETIC HEADING 080-260 DEGREES
RUNWAY 7  RUNWAY 25
Traffic pattern: leftleft
Markings: nonenone
Obstructions: none95 ft. tree, 770 ft. from runway, 75 ft. left of centerline, 6:1 slope to clear
RWY 25 +40-45 FT TREES FM RY END TO 200 FT - 90 FT L AND PRIVATE ROAD LEADING INTO AIRPORT.

Airport Ownership and Management from official FAA records

Ownership: Privately-owned
Owner: A. F. & H. C. SKIPPER
PO BOX 571
SANDY, OR 97055
Phone 503-668-6808
Manager: ARTHUR F. SKIPPER
PO BOX 571
SANDY, OR 97055
Phone 503-668-6808

Airport Operational Statistics

Aircraft based on the field: 27
Single engine airplanes: 26
Multi engine airplanes: 1
    
Aircraft operations: avg 38/week *
60% transient general aviation
40% local general aviation
* for 12-month period ending 08 March 2021

Additional Remarks

DEER ON AND IN VICINITY OF ARPT.
FOR CD CTC PORTLAND APCH AT 503-493-7545.

Instrument Procedures

There are no published instrument procedures at S48.

Some nearby airports with instrument procedures:

KTTD - Portland-Troutdale Airport (13 nm NW)
KPDX - Portland International Airport (20 nm NW)
KUAO - Aurora State Airport (22 nm W)
KVUO - Pearson Field Airport (23 nm NW)
KHIO - Portland-Hillsboro Airport (31 nm W)
 
Loc | Ops | Rwys | IFR | FBO | Links
Com | Nav | Svcs | Stats | Notes
Area around S48 (Country Squire Airpark)
 
Road maps at: MapQuest Bing Google
 
Aerial photo
WARNING: Photo may not be current or correct
Aerial photo of S48 (Country Squire Airpark)
Do you have a better or more recent aerial photo of Country Squire Airpark that you would like to share? If so, please send us your photo.

 
Sectional chart

 
Airport distance calculator
Flying to Country Squire Airpark? Find the distance to fly.

From to S48

Sunrise and sunset
Times for 19-Oct-2021
 Local
(UTC-7)
 Zulu
(UTC)
Morning civil twilight07:0214:02
Sunrise07:3214:32
Sunset18:1601:16
Evening civil twilight18:4601:46

Current date and time
Zulu (UTC)  20-Oct-2021 01:20:10
Local (UTC-7)  19-Oct-2021 18:20:10
 
METAR
KTTD 
13nm NW 
200053Z 08012KT 10SM CLR 17/06 A2965 RMK AO2 SLP041 T01720061
KPDX 
20nm NW 
200053Z 31005KT 10SM FEW190 SCT230 BKN260 14/08 A2966 RMK AO2 SLP045 CCSL W T01390083
KUAO 
22nm W 
200053Z 00000KT 9SM HZ FU CLR 13/09 A2967 RMK AO2 SLP047 T01280094
KVUO 
22nm NW 
200053Z AUTO 00000KT 10SM CLR 13/08 A2966 RMK AO2 SLP045 T01330083
TAF
KTTD 
13nm NW 
191730Z 1918/2018 10010KT P6SM BKN250 FM192100 09014G22KT P6SM SCT140 OVC200 FM200700 09014G22KT P6SM BKN120 OVC200 FM201100 09015G23KT P6SM -RA OVC080 FM201600 11008KT P6SM -RA OVC050
KPDX 
20nm NW 
192118Z 1921/2018 34003KT P6SM BKN200 FM192300 10010KT P6SM OVC200 FM200600 10008KT P6SM BKN100 OVC140 FM200900 11011KT P6SM -RA BKN060 OVC080 FM201500 18014G22KT P6SM -RA SCT030 OVC045
NOTAMs
Click for the latest NOTAMs
NOTAMs are issued by the DoD/FAA and will open in a separate window not controlled by AirNav.

 

 
 

Would you like to see your business listed on this page?

 If your business provides an interesting product or service to pilots, flight crews, aircraft, or users of the Country Squire Airpark, you should consider listing it here.  To start the listing process, click on the button below
 
Add a business
 

Other Pages about Country Squire Airpark

Update a link
 
Copyright © AirNav, LLC. All rights reserved. Privacy Policy  Contact